sat.trackr.live / text

‹ back to catalog

ONEWEB-0017

NORAD 45132 · 2020-008B

PAYLOAD ACTIVE UNKNOWN

§ Identity

Operator
Country
UK
Launch date
2020-02-06
Launch site
TYMSC
Launch vehicle
Mass (kg)
RCS (m²)

Purposes: comms

External: N2YO · Heavens-Above · Gunter

§ Orbital elements

Epoch: 2026-09-20T03:23:20.372928Z

Period
109.89 min
Inclination
87.8909°
Eccentricity
0.0001533
Mean motion
13.10375771 rev/d
Perigee alt
1,220.5 km
Apogee alt
1,222.9 km
Semi-major
7,599.8 km
B*
8.8716e-4
RAAN
17.3656°
Arg perigee
102.7183°
Mean anomaly
257.4116°
Rev number
32,038

§ Raw data

ONEWEB-00171 45132U 20008B   26263.14120802  .00000322  00000+0  88716-3 0  99912 45132  87.8909  17.3656 0001533 102.7183 257.4116 13.10375771320387

JSON: /api/v1/satellites/45132 · /tle

For live sub-satellite position, see the globe view (requires WebGL).

§ Visibility from observer

Set your observer location to see the next 7 days of passes ≥ 10°. The values pass through the URL so the page stays shareable.

No JS? Fill the form by hand. The geolocation button needs JavaScript.